Location: Little Maitland River
(43.8022°N, 81.1549°W)
Time: 13:46:38
(UTC+00:00)

SWAS - Pass Details

Date: 09 December 2025
Orbit: 539 x 544 km, 69.9° (Epoch: 19 January)

Event Time Altitude Azimuth Distance (km) Brightness Sun altitude
Exits shadow 10:34:56 84° 167° (SSE) 551 4.2 -23.0°
Drops below altitude 10° 10:38:49 10° 155° (SSE) 1,797 7.4 -22.3°
Sets 10:40:59 0° 155° (SSE) 2,684 8.3 -21.9°
